Flugplatz Burg Feuerstein
 
.... wo jeder bestens aufgehoben ist! 

 

DSC04520

 


Täglich sind wir von 08.30 bis 12.30 Uhr und von 13.00 bis 16.45 Uhr unter 09194 - 79 75 75 

oder 

rund um die Uhr per Diese E-Mail-Adresse ist vor Spambots geschützt! Zur Anzeige muss JavaScript eingeschaltet sein! zu erreichen!

 

Flugbetrieb an jedem fliegbaren Tag von 9 Uhr bis 18 Uhr - nach Absprache auch flexibel darüber hinaus ! 

 


 
 

Wir bieten professionelle und trotzdem sehr günstige Ausbildung in 4 Sparten an:

Motorflug Motorsegler Segelflug Ultraleicht

Bei unseren Gebühren gibt keine „versteckten Kosten“ wie

  • Baustunden oder finanzielle Ausgleiche dafür
  • Verpflichtung zu Diensten oder finanzielle Ausgleiche dafür
  • Umschulungs- oder Typengebühren

Ebenso gibt es bei uns keinerlei zeitlicher Verpflichtungen zur Teilnahme am Flugbetrieb!

Kümmern Sie sich nur um Ihre fliegerischen Ambitionen – wir unterstützen Sie dabei professionell, individuell, zielorientiert und maximal flexibel!

Feuerstein News Ticker

Die ersten Schneeflocken sind schon vorhergesagt und es ist eine Frage der Zeit, bis der Winter vollends da ist und uns eine erste Schneedecke beschert! Sofern es einen Bedarf gibt,...


mehr lesen ...
0

Webcam Blick N

webcam 2

Webcam Blick NO

webcam 1

METAR EDDN

[Quelle: ADDS]
METAR
EDDN 240750Z 36001KT 3000 -SN FEW013 BKN019 M04/M05 Q1006 R10/490293 TEMPO BKN013 =
EDDN 240500Z 2406/2506 VRB03KT 6000 BKN015 PROB30 TEMPO 2406/2409 4000 -SN BR BKN012 PROB30 TEMPO 2421/2506 4000 -SN BR BKN012
TAF
EDDN 240500Z 2406/2506 VRB03KT 6000 BKN015 PROB30 TEMPO 2406/2409 4000 -SN BR BKN012 PROB30 TEMPO 2421/2506 4000 -SN BR BKN012 =
SR / SS: 06:58 / 15:56 UTC (EDQE 2019-01-24)

Wetter EDQE


Das Wetter heute
Das Wetter morgen